This is the latest recevied weather packets stored in our database for station/object VE2JJ-13. If no packets are shown the sender has not sent any weather packets the latest 10 day(s).
| Time | Temp. | Humidity | Pressure | Rain* | Wind** | Luminosity | Snow |
|---|---|---|---|---|---|---|---|
| 1777905239 | 9.44° C | 90% | 997.8 hPa | 0 mm | - | - | - |
| 1777904905 | 9.44° C | 90% | 997.8 hPa | 0 mm | - | - | - |
| 1777904603 | 9.44° C | 90% | 997.8 hPa | 0 mm | - | - | - |
| 1777904273 | 9.44° C | 90% | 997.8 hPa | 0 mm | - | - | - |
| 1777903977 | 9.44° C | 90% | 997.7 hPa | 0 mm | - | - | - |
| 1777903673 | 9.44° C | 90% | 997.7 hPa | 0 mm | - | - | - |
| 1777903075 | 8.89° C | 91% | 997.6 hPa | 0 mm | - | - | - |
| 1777902744 | 8.89° C | 91% | 997.4 hPa | 0 mm | - | - | - |
| 1777901814 | 8.89° C | 92% | 997.3 hPa | 0 mm | - | - | - |
| 1777901513 | 8.89° C | 93% | 997.3 hPa | 0 mm | - | - | - |
| 1777900887 | 8.33° C | 94% | 997.2 hPa | 0.25 mm | - | - | - |
| 1777900583 | 8.33° C | 94% | 997.2 hPa | 0.25 mm | - | - | - |
| 1777900283 | 8.33° C | 94% | 997.2 hPa | 0.51 mm | - | - | - |
| 1777899025 | 8.33° C | 94% | 997 hPa | 1.52 mm | - | - | - |
| 1777898393 | 7.78° C | 94% | 996.9 hPa | 1.78 mm | - | - | - |
| 1777898064 | 7.78° C | 94% | 996.9 hPa | 2.03 mm | - | - | - |
| 1777897740 | 7.78° C | 94% | 997 hPa | 2.03 mm | - | - | - |
| 1777897433 | 7.78° C | 94% | 997 hPa | 2.03 mm | - | - | - |
| 1777897133 | 7.78° C | 94% | 997 hPa | 1.78 mm | - | - | - |
| 1777896808 | 7.78° C | 93% | 997.2 hPa | 1.52 mm | - | - | - |
| 1777896476 | 7.78° C | 93% | 997.2 hPa | 1.27 mm | - | - | - |
| 1777896173 | 7.78° C | 93% | 997 hPa | 1.02 mm | - | - | - |
| 1777895846 | 7.78° C | 93% | 997 hPa | 1.02 mm | - | - | - |
| 1777894553 | 7.22° C | 92% | 997 hPa | 0 mm | - | - | - |
| 1777894224 | 7.22° C | 91% | 997 hPa | 0 mm | - | - | - |
* Rain latest hour (hover to see other rain measurements)
** Current wind speed in m/s (hover to see current wind gust speed)